QPF
0.01 0.01 0.01 0.01 0.01 0.01 0.02 0.02 0.02 0.01 0.01 0.02 0.02 0.02 0.03 0.03 0.03 0.03 0.03 0.04 0.04 0.04 0.03 0.03 0.02 0.02 0.02 0.03 0.04 0.05 0.07 0.09 0.08 0.07 0.05 0.04 0.05 0.03 0.02 0.02 0.03 0.04 0.04
0.01 0.02 0.01 0.01 0.01 0.01 0.01 0.01 0.01 0.01 0.01 0.01 0.01 0.01 0.02 0.02 0.02 0.02 0.02 0.02 0.02 0.02 0.03 0.03 0.03 0.02 0.02 0.03 0.04 0.04 0.06 0.07 0.07 0.06 0.06 0.05 0.04 0.04 0.03 0.03 0.03 0.03 0.03
0.01 0.01 0.01 0.01 0.01 0.01 0.01 0.01 0.00 0.00 0.00 0.01 0.01 0.01 0.02 0.02 0.01 0.01 0.01 0.01 0.01 0.01 0.02 0.02 0.02 0.03 0.02 0.02 0.03 0.03 0.04 0.05 0.06 0.05 0.05 0.05 0.04 0.04 0.04 0.03 0.03 0.03 0.03
0.01 0.01 0.01 0.01 0.01 0.00 0.00 0.00 0.00 0.00 0.00 0.01 0.01 0.01 0.01 0.01 0.01 0.01 0.01 0.01 0.01 0.01 0.01 0.01 0.02 0.03 0.03 0.03 0.04 0.04 0.04 0.05 0.06 0.07 0.05 0.04 0.04 0.03 0.03 0.03 0.03 0.03 0.02
0.01 0.01 0.00 0.00 0.00 0.00 0.00 0.00 0.00 0.01 0.01 0.01 0.01 0.01 0.00 0.00 0.00 0.01 0.01 0.01 0.01 0.01 0.01 0.01 0.02 0.02 0.03 0.04 0.06 0.05 0.04 0.05 0.05 0.06 0.04 0.04 0.04 0.04 0.03 0.02 0.03 0.04 0.03
0.01 0.01 0.00 0.00 0.00 0.00 0.01 0.01 0.00 0.01 0.01 0.01 0.00 0.00 0.00 0.00 0.00 0.00 0.00 0.01 0.01 0.01 0.01 0.01 0.02 0.02 0.02 0.04 0.06 0.07 0.07 0.05 0.05 0.04 0.03 0.04 0.04 0.03 0.03 0.03 0.04 0.04 0.03
0.01 0.01 0.01 0.01 0.00 0.00 0.01 0.00 0.01 0.01 0.01 0.01 0.01 0.00 0.00 0.00 0.00 0.00 0.00 0.00 0.00 0.01 0.01 0.02 0.04 0.03 0.03 0.04 0.05 0.06 0.05 0.04 0.03 0.03 0.03 0.03 0.03 0.03 0.02 0.02 0.03 0.04 0.03
0.00 0.01 0.01 0.01 0.01 0.01 0.01 0.01 0.02 0.02 0.01 0.02 0.02 0.00 0.00 0.00 0.00 0.00 0.00 0.01 0.01 0.01 0.02 0.04 0.04 0.04 0.04 0.03 0.04 0.05 0.04 0.03 0.03 0.02 0.02 0.02 0.01 0.01 0.01 0.02 0.03 0.03 0.03
0.00 0.01 0.01 0.01 0.01 0.00 0.01 0.01 0.01 0.01 0.01 0.01 0.01 0.00 0.00 0.00 0.00 0.00 0.02 0.01 0.01 0.01 0.02 0.02 0.01 0.02 0.02 0.02 0.02 0.03 0.03 0.02 0.02 0.01 0.01 0.01 0.01 0.01 0.01 0.02 0.02 0.03 0.04
0.01 0.01 0.01 0.00 0.00 0.01 0.01 0.01 0.00 0.01 0.01 0.01 0.00 0.00 0.01 0.00 0.00 0.00 0.00 0.00 0.00 0.00 0.01 0.00 0.00 0.00 0.00 0.01 0.02 0.02 0.01 0.01 0.01 0.01 0.01 0.01 0.01 0.01 0.01 0.02 0.03 0.04 0.06
0.01 0.01 0.01 0.01 0.01 0.01 0.01 0.01 0.01 0.01 0.01 0.01 0.01 0.01 0.01 0.00 0.00 0.00 0.00 0.00 0.00 0.00 0.00 0.00 0.00 0.00 0.00 0.01 0.02 0.03 0.04 0.02 0.02 0.02 0.01 0.01 0.01 0.01 0.01 0.02 0.04 0.05 0.06
0.02 0.02 0.01 0.01 0.01 0.01 0.01 0.01 0.02 0.01 0.01 0.02 0.02 0.01 0.01 0.00 0.00 0.00 0.01 0.01 0.00 0.00 0.01 0.01 0.00 0.00 0.00 0.00 0.01 0.03 0.03 0.03 0.03 0.03 0.02 0.01 0.01 0.01 0.01 0.01 0.02 0.03 0.03
0.03 0.02 0.02 0.02 0.02 0.02 0.02 0.01 0.01 0.01 0.00 0.01 0.01 0.01 0.01 0.01 0.01 0.01 0.01 0.01 0.01 0.02 0.02 0.02 0.01 0.01 0.00 0.00 0.01 0.01 0.02 0.03 0.03 0.02 0.02 0.01 0.01 0.01 0.01 0.01 0.02 0.02 0.02
0.02 0.03 0.03 0.02 0.02 0.02 0.02 0.02 0.01 0.01 0.01 0.01 0.02 0.02 0.02 0.02 0.02 0.02 0.02 0.03 0.03 0.03 0.02 0.03 0.02 0.01 0.01 0.01 0.01 0.01 0.01 0.02 0.02 0.02 0.02 0.02 0.02 0.03 0.03 0.02 0.02 0.02 0.03
0.01 0.01 0.01 0.01 0.01 0.01 0.01 0.01 0.01 0.01 0.02 0.02 0.02 0.02 0.01 0.02 0.02 0.03 0.02 0.02 0.02 0.02 0.03 0.03 0.02 0.01 0.01 0.01 0.01 0.01 0.01 0.02 0.02 0.03 0.03 0.04 0.05 0.06 0.06 0.05 0.04 0.03 0.03
0.01 0.01 0.00 0.00 0.01 0.00 0.00 0.01 0.01 0.01 0.01 0.02 0.01 0.01 0.01 0.01 0.01 0.01 0.02 0.02 0.03 0.03 0.02 0.01 0.01 0.01 0.01 0.01 0.01 0.01 0.01 0.02 0.02 0.03 0.03 0.04 0.04 0.04 0.04 0.04 0.02 0.02 0.02
0.02 0.01 0.01 0.01 0.01 0.01 0.01 0.01 0.01 0.01 0.01 0.01 0.01 0.01 0.01 0.01 0.01 0.01 0.02 0.02 0.02 0.02 0.01 0.01 0.01 0.02 0.02 0.01 0.01 0.01 0.01 0.01 0.02 0.02 0.02 0.02 0.02 0.02 0.03 0.03 0.03 0.02 0.02
0.03 0.02 0.02 0.01 0.01 0.01 0.01 0.01 0.01 0.01 0.01 0.01 0.01 0.01 0.01 0.01 0.01 0.01 0.01 0.01 0.01 0.01 0.01 0.01 0.01 0.01 0.02 0.01 0.01 0.01 0.01 0.01 0.01 0.01 0.01 0.02 0.02 0.02 0.02 0.02 0.02 0.02 0.02
0.03 0.02 0.02 0.01 0.01 0.01 0.01 0.01 0.01 0.02 0.02 0.01 0.01 0.01 0.01 0.01 0.01 0.01 0.01 0.00 0.00 0.01 0.01 0.01 0.01 0.01 0.01 0.01 0.01 0.01 0.01 0.01 0.02 0.02 0.02 0.02 0.02 0.02 0.02 0.02 0.02 0.03 0.03
0.03 0.02 0.01 0.01 0.01 0.00 0.01 0.01 0.02 0.02 0.02 0.02 0.02 0.01 0.01 0.01 0.01 0.01 0.01 0.01 0.01 0.01 0.01 0.01 0.01 0.01 0.01 0.02 0.01 0.01 0.01 0.02 0.02 0.03 0.03 0.03 0.03 0.03 0.03 0.02 0.03 0.03 0.03
0.02 0.02 0.01 0.01 0.00 0.01 0.01 0.01 0.02 0.01 0.02 0.02 0.02 0.02 0.02 0.01 0.01 0.01 0.01 0.01 0.01 0.01 0.01 0.01 0.01 0.01 0.02 0.02 0.02 0.02 0.01 0.02 0.02 0.02 0.02 0.03 0.02 0.02 0.02 0.02 0.02 0.02 0.03
0.02 0.01 0.01 0.00 0.00 0.01 0.01 0.01 0.01 0.02 0.02 0.02 0.01 0.01 0.02 0.02 0.02 0.01 0.01 0.01 0.01 0.01 0.01 0.01 0.01 0.01 0.02 0.03 0.03 0.03 0.02 0.01 0.01 0.01 0.01 0.01 0.01 0.02 0.02 0.02 0.02 0.02 0.02
0.02 0.01 0.01 0.01 0.01 0.01 0.02 0.01 0.01 0.01 0.02 0.01 0.01 0.01 0.02 0.02 0.02 0.02 0.03 0.02 0.02 0.01 0.01 0.01 0.01 0.02 0.02 0.04 0.04 0.03 0.02 0.02 0.01 0.01 0.01 0.02 0.02 0.02 0.02 0.02 0.02 0.02 0.01
0.03 0.02 0.02 0.02 0.01 0.01 0.01 0.01 0.01 0.01 0.01 0.02 0.02 0.02 0.02 0.02 0.02 0.02 0.03 0.02 0.01 0.01 0.01 0.01 0.02 0.04 0.04 0.03 0.02 0.02 0.02 0.02 0.02 0.01 0.01 0.01 0.02 0.02 0.02 0.02 0.02 0.02 0.01
0.02 0.02 0.02 0.01 0.01 0.01 0.01 0.01 0.02 0.02 0.02 0.02 0.02 0.02 0.02 0.02 0.02 0.02 0.02 0.02 0.02 0.02 0.03 0.03 0.03 0.03 0.04 0.03 0.03 0.02 0.02 0.02 0.01 0.01 0.01 0.02 0.02 0.03 0.02 0.02 0.02 0.02 0.02
0.02 0.02 0.02 0.01 0.01 0.01 0.01 0.02 0.01 0.01 0.02 0.03 0.03 0.02 0.02 0.02 0.02 0.02 0.02 0.02 0.02 0.02 0.02 0.03 0.03 0.04 0.03 0.03 0.03 0.03 0.03 0.03 0.02 0.02 0.02 0.02 0.02 0.03 0.03 0.03 0.02 0.02 0.02
MSLP
1015.59 1015.81 1016.03 1016.21 1016.32 1016.34 1016.29 1016.19 1016.07 1015.96 1015.90 1015.89 1015.95 1016.04 1016.14 1016.24 1016.29 1016.28 1016.21 1016.07 1015.88 1015.66 1015.43 1015.19 1014.96 1014.77 1014.61 1014.51 1014.49 1014.55 1014.72 1015.00 1015.39 1015.88 1016.42 1016.99 1017.53 1018.01 1018.38 1018.62 1018.75 1018.76 1018.69
1015.32 1015.56 1015.79 1015.99 1016.13 1016.19 1016.18 1016.12 1016.03 1015.95 1015.91 1015.92 1015.98 1016.08 1016.19 1016.29 1016.35 1016.36 1016.31 1016.19 1016.02 1015.80 1015.56 1015.31 1015.05 1014.82 1014.62 1014.47 1014.40 1014.42 1014.55 1014.80 1015.17 1015.65 1016.21 1016.80 1017.37 1017.89 1018.30 1018.59 1018.75 1018.80 1018.76
1015.12 1015.38 1015.63 1015.86 1016.02 1016.11 1016.13 1016.11 1016.05 1016.00 1015.98 1016.00 1016.06 1016.15 1016.25 1016.35 1016.41 1016.42 1016.38 1016.27 1016.11 1015.91 1015.68 1015.43 1015.17 1014.92 1014.70 1014.52 1014.41 1014.39 1014.48 1014.69 1015.02 1015.47 1016.00 1016.57 1017.13 1017.65 1018.07 1018.38 1018.57 1018.64 1018.64
1015.04 1015.32 1015.60 1015.84 1016.01 1016.12 1016.16 1016.15 1016.12 1016.08 1016.07 1016.08 1016.14 1016.22 1016.30 1016.38 1016.42 1016.43 1016.38 1016.28 1016.14 1015.96 1015.75 1015.53 1015.29 1015.06 1014.84 1014.65 1014.52 1014.47 1014.51 1014.67 1014.94 1015.32 1015.79 1016.30 1016.82 1017.29 1017.70 1018.00 1018.19 1018.29 1018.32
1015.15 1015.44 1015.72 1015.94 1016.11 1016.20 1016.24 1016.23 1016.19 1016.15 1016.13 1016.14 1016.18 1016.23 1016.29 1016.34 1016.36 1016.34 1016.29 1016.20 1016.07 1015.92 1015.75 1015.56 1015.37 1015.17 1014.98 1014.81 1014.68 1014.61 1014.61 1014.70 1014.90 1015.19 1015.56 1015.98 1016.42 1016.83 1017.19 1017.46 1017.65 1017.77 1017.83
1015.48 1015.76 1016.00 1016.19 1016.31 1016.36 1016.35 1016.30 1016.24 1016.19 1016.15 1016.14 1016.16 1016.19 1016.22 1016.23 1016.22 1016.18 1016.11 1016.02 1015.90 1015.77 1015.64 1015.51 1015.36 1015.22 1015.08 1014.94 1014.82 1014.73 1014.70 1014.73 1014.85 1015.04 1015.30 1015.62 1015.95 1016.28 1016.57 1016.82 1017.00 1017.13 1017.22
1016.01 1016.25 1016.43 1016.54 1016.58 1016.56 1016.48 1016.38 1016.28 1016.19 1016.13 1016.10 1016.10 1016.10 1016.11 1016.09 1016.05 1015.98 1015.89 1015.78 1015.67 1015.55 1015.45 1015.35 1015.26 1015.17 1015.07 1014.97 1014.87 1014.79 1014.72 1014.71 1014.74 1014.84 1014.99 1015.20 1015.43 1015.68 1015.91 1016.11 1016.28 1016.43 1016.55
1016.72 1016.89 1016.98 1017.00 1016.93 1016.80 1016.64 1016.47 1016.32 1016.19 1016.11 1016.07 1016.06 1016.05 1016.04 1016.00 1015.93 1015.82 1015.70 1015.56 1015.42 1015.30 1015.20 1015.12 1015.05 1015.00 1014.94 1014.87 1014.79 1014.70 1014.62 1014.56 1014.54 1014.55 1014.62 1014.73 1014.88 1015.05 1015.24 1015.41 1015.58 1015.74 1015.90
1017.53 1017.61 1017.60 1017.51 1017.33 1017.10 1016.85 1016.61 1016.41 1016.27 1016.18 1016.13 1016.12 1016.12 1016.10 1016.04 1015.94 1015.79 1015.62 1015.43 1015.24 1015.08 1014.94 1014.84 1014.77 1014.72 1014.67 1014.62 1014.55 1014.46 1014.37 1014.28 1014.21 1014.17 1014.18 1014.23 1014.32 1014.44 1014.60 1014.76 1014.93 1015.11 1015.29
1018.34 1018.34 1018.24 1018.04 1017.77 1017.45 1017.14 1016.85 1016.63 1016.47 1016.39 1016.37 1016.37 1016.38 1016.36 1016.29 1016.15 1015.96 1015.72 1015.45 1015.18 1014.94 1014.73 1014.57 1014.45 1014.36 1014.30 1014.23 1014.16 1014.07 1013.97 1013.87 1013.77 1013.71 1013.68 1013.69 1013.76 1013.86 1014.00 1014.16 1014.35 1014.54 1014.76
1019.07 1019.01 1018.83 1018.56 1018.23 1017.86 1017.51 1017.21 1016.98 1016.85 1016.80 1016.81 1016.85 1016.87 1016.86 1016.77 1016.60 1016.34 1016.02 1015.65 1015.28 1014.92 1014.60 1014.34 1014.14 1013.98 1013.86 1013.76 1013.66 1013.56 1013.45 1013.34 1013.24 1013.16 1013.12 1013.12 1013.18 1013.29 1013.43 1013.61 1013.81 1014.02 1014.25
1019.64 1019.54 1019.34 1019.04 1018.68 1018.31 1017.96 1017.68 1017.49 1017.40 1017.39 1017.44 1017.52 1017.57 1017.55 1017.44 1017.23 1016.90 1016.48 1016.01 1015.51 1015.02 1014.57 1014.18 1013.86 1013.61 1013.41 1013.25 1013.11 1012.98 1012.85 1012.73 1012.63 1012.55 1012.51 1012.52 1012.58 1012.69 1012.85 1013.05 1013.27 1013.49 1013.73
1020.02 1019.93 1019.73 1019.45 1019.11 1018.77 1018.46 1018.23 1018.09 1018.05 1018.10 1018.20 1018.31 1018.38 1018.36 1018.22 1017.96 1017.56 1017.04 1016.45 1015.83 1015.20 1014.62 1014.11 1013.67 1013.31 1013.02 1012.78 1012.59 1012.41 1012.26 1012.12 1012.00 1011.91 1011.86 1011.87 1011.93 1012.06 1012.22 1012.43 1012.66 1012.89 1013.13
1020.24 1020.17 1020.01 1019.77 1019.48 1019.20 1018.96 1018.79 1018.72 1018.74 1018.84 1018.97 1019.10 1019.18 1019.15 1018.98 1018.66 1018.20 1017.60 1016.92 1016.18 1015.44 1014.75 1014.12 1013.57 1013.11 1012.73 1012.42 1012.16 1011.93 1011.73 1011.55 1011.40 1011.28 1011.21 1011.20 1011.24 1011.35 1011.51 1011.71 1011.93 1012.17 1012.41
1020.33 1020.31 1020.19 1020.00 1019.79 1019.57 1019.40 1019.29 1019.28 1019.35 1019.48 1019.64 1019.78 1019.84 1019.79 1019.59 1019.24 1018.72 1018.07 1017.32 1016.51 1015.70 1014.93 1014.22 1013.60 1013.07 1012.62 1012.24 1011.91 1011.61 1011.35 1011.11 1010.89 1010.72 1010.59 1010.52 1010.52 1010.58 1010.71 1010.88 1011.08 1011.31 1011.53
1020.39 1020.39 1020.31 1020.17 1020.01 1019.85 1019.74 1019.68 1019.71 1019.81 1019.96 1020.12 1020.24 1020.29 1020.21 1019.99 1019.60 1019.06 1018.38 1017.62 1016.80 1015.97 1015.18 1014.44 1013.79 1013.22 1012.72 1012.29 1011.90 1011.53 1011.19 1010.86 1010.55 1010.28 1010.05 1009.89 1009.80 1009.79 1009.84 1009.96 1010.12 1010.31 1010.51
1020.49 1020.48 1020.41 1020.30 1020.17 1020.05 1019.97 1019.95 1019.99 1020.09 1020.23 1020.37 1020.47 1020.49 1020.39 1020.15 1019.76 1019.22 1018.56 1017.82 1017.04 1016.25 1015.49 1014.79 1014.15 1013.58 1013.07 1012.60 1012.15 1011.71 1011.27 1010.84 1010.41 1010.01 1009.66 1009.37 1009.16 1009.03 1008.99 1009.02 1009.11 1009.25 1009.41
1020.67 1020.63 1020.55 1020.43 1020.31 1020.20 1020.12 1020.10 1020.14 1020.22 1020.34 1020.44 1020.51 1020.50 1020.38 1020.14 1019.76 1019.25 1018.65 1017.98 1017.27 1016.56 1015.89 1015.25 1014.67 1014.14 1013.64 1013.15 1012.65 1012.14 1011.61 1011.05 1010.49 1009.94 1009.44 1008.99 1008.63 1008.36 1008.20 1008.12 1008.13 1008.19 1008.30
1020.94 1020.85 1020.73 1020.59 1020.44 1020.32 1020.23 1020.20 1020.21 1020.27 1020.35 1020.42 1020.45 1020.41 1020.28 1020.04 1019.69 1019.24 1018.71 1018.13 1017.53 1016.94 1016.37 1015.83 1015.33 1014.85 1014.38 1013.88 1013.35 1012.77 1012.14 1011.47 1010.76 1010.06 1009.39 1008.79 1008.26 1007.84 1007.54 1007.34 1007.24 1007.21 1007.25
1021.30 1021.14 1020.96 1020.78 1020.61 1020.46 1020.35 1020.29 1020.28 1020.31 1020.35 1020.39 1020.38 1020.32 1020.19 1019.96 1019.65 1019.26 1018.81 1018.33 1017.84 1017.37 1016.91 1016.48 1016.06 1015.64 1015.19 1014.70 1014.14 1013.50 1012.79 1012.00 1011.18 1010.33 1009.51 1008.74 1008.06 1007.49 1007.04 1006.71 1006.49 1006.36 1006.30
1021.68 1021.46 1021.24 1021.02 1020.81 1020.65 1020.52 1020.44 1020.41 1020.41 1020.42 1020.42 1020.40 1020.32 1020.18 1019.96 1019.68 1019.35 1018.98 1018.58 1018.19 1017.81 1017.46 1017.11 1016.76 1016.39 1015.98 1015.49 1014.91 1014.23 1013.44 1012.57 1011.64 1010.68 1009.73 1008.83 1008.01 1007.30 1006.72 1006.25 1005.91 1005.66 1005.50
1022.04 1021.78 1021.52 1021.28 1021.06 1020.88 1020.75 1020.66 1020.62 1020.60 1020.59 1020.57 1020.52 1020.43 1020.28 1020.08 1019.82 1019.52 1019.20 1018.87 1018.54 1018.23 1017.94 1017.65 1017.36 1017.02 1016.62 1016.14 1015.54 1014.83 1014.00 1013.07 1012.07 1011.02 1009.99 1008.99 1008.06 1007.24 1006.54 1005.96 1005.50 1005.14 1004.86
1022.31 1022.04 1021.79 1021.54 1021.33 1021.16 1021.03 1020.95 1020.90 1020.87 1020.85 1020.81 1020.75 1020.64 1020.48 1020.27 1020.02 1019.73 1019.43 1019.13 1018.83 1018.56 1018.29 1018.03 1017.75 1017.43 1017.04 1016.55 1015.95 1015.22 1014.38 1013.42 1012.39 1011.31 1010.22 1009.16 1008.18 1007.28 1006.49 1005.81 1005.25 1004.77 1004.38
1022.49 1022.24 1022.00 1021.78 1021.59 1021.44 1021.33 1021.26 1021.21 1021.18 1021.15 1021.10 1021.02 1020.89 1020.72 1020.49 1020.23 1019.93 1019.63 1019.32 1019.03 1018.75 1018.48 1018.22 1017.93 1017.61 1017.22 1016.73 1016.12 1015.40 1014.56 1013.61 1012.58 1011.50 1010.41 1009.34 1008.32 1007.38 1006.53 1005.78 1005.13 1004.56 1004.07
1022.57 1022.36 1022.15 1021.96 1021.80 1021.68 1021.59 1021.53 1021.49 1021.45 1021.42 1021.36 1021.26 1021.12 1020.92 1020.68 1020.39 1020.08 1019.76 1019.43 1019.11 1018.81 1018.52 1018.24 1017.93 1017.60 1017.20 1016.71 1016.11 1015.41 1014.59 1013.68 1012.68 1011.63 1010.56 1009.50 1008.48 1007.52 1006.64 1005.85 1005.13 1004.49 1003.91
1022.55 1022.38 1022.22 1022.07 1021.94 1021.83 1021.76 1021.71 1021.67 1021.64 1021.59 1021.52 1021.41 1021.26 1021.05 1020.79 1020.49 1020.16 1019.81 1019.46 1019.12 1018.79 1018.48 1018.16 1017.84 1017.48 1017.08 1016.59 1016.02 1015.34 1014.56 1013.69 1012.74 1011.73 1010.70 1009.67 1008.67 1007.72 1006.83 1006.01 1005.26 1004.56 1003.92
Thickness
5791 5787 5782 5779 5775 5772 5768 5766 5763 5761 5758 5756 5754 5753 5751 5749 5748 5746 5746 5744 5742 5740 5739 5737 5734 5733 5732 5731 5728 5725 5722 5717 5707 5699 5695 5690 5687 5685 5682 5681 5678 5676 5671
5792 5787 5782 5778 5775 5771 5768 5765 5762 5759 5757 5754 5752 5750 5748 5746 5744 5742 5741 5740 5738 5735 5733 5732 5730 5729 5726 5725 5723 5720 5716 5711 5705 5695 5690 5685 5682 5679 5676 5675 5673 5670 5666
5792 5786 5781 5777 5773 5770 5766 5763 5760 5757 5754 5752 5749 5746 5744 5742 5740 5739 5737 5735 5733 5731 5729 5726 5725 5723 5720 5719 5716 5714 5710 5706 5700 5693 5686 5681 5677 5674 5671 5669 5666 5662 5660
5791 5785 5780 5776 5772 5769 5765 5761 5758 5755 5752 5749 5746 5743 5741 5739 5737 5735 5733 5730 5728 5726 5724 5722 5719 5717 5714 5712 5710 5706 5703 5699 5694 5689 5683 5677 5672 5668 5667 5664 5660 5656 5653
5789 5784 5779 5775 5771 5767 5763 5759 5755 5752 5749 5745 5742 5740 5738 5736 5734 5730 5729 5726 5723 5721 5718 5716 5713 5709 5706 5705 5705 5701 5697 5694 5690 5685 5679 5674 5668 5664 5662 5660 5656 5652 5647
5787 5782 5777 5773 5769 5765 5761 5756 5752 5748 5745 5742 5738 5736 5734 5732 5724 5722 5722 5721 5718 5716 5713 5711 5709 5705 5700 5696 5693 5691 5689 5687 5684 5680 5675 5668 5662 5660 5656 5655 5651 5647 5642
5783 5779 5774 5771 5766 5762 5759 5753 5748 5744 5741 5737 5734 5731 5728 5722 5717 5716 5714 5715 5713 5710 5707 5706 5706 5701 5697 5694 5688 5684 5681 5678 5675 5674 5670 5664 5660 5656 5652 5649 5644 5641 5636
5780 5776 5772 5768 5764 5759 5754 5749 5745 5741 5737 5734 5730 5727 5722 5717 5712 5710 5708 5709 5707 5703 5701 5698 5696 5693 5691 5688 5686 5681 5677 5672 5669 5667 5663 5659 5654 5650 5646 5643 5638 5633 5629
5776 5772 5769 5766 5761 5756 5750 5745 5741 5737 5733 5730 5726 5722 5718 5712 5706 5704 5702 5705 5701 5698 5695 5691 5689 5685 5680 5678 5678 5674 5670 5666 5661 5657 5653 5649 5645 5641 5639 5638 5633 5630 5624
5772 5769 5767 5763 5758 5752 5747 5742 5738 5734 5730 5727 5722 5718 5714 5709 5701 5699 5697 5701 5696 5694 5688 5684 5678 5676 5672 5670 5671 5668 5664 5660 5657 5653 5647 5643 5639 5635 5631 5629 5628 5624 5620
5769 5765 5761 5757 5753 5748 5743 5738 5734 5730 5726 5722 5717 5713 5709 5704 5697 5693 5691 5694 5692 5689 5686 5681 5675 5668 5665 5662 5661 5660 5656 5653 5651 5648 5644 5640 5635 5630 5626 5623 5619 5617 5614
5763 5759 5755 5751 5748 5744 5738 5733 5729 5724 5720 5716 5712 5708 5705 5699 5693 5688 5685 5682 5681 5680 5678 5675 5668 5660 5658 5655 5654 5650 5648 5645 5646 5643 5639 5634 5630 5626 5621 5617 5612 5608 5605
5757 5753 5749 5746 5742 5738 5734 5729 5724 5719 5718 5715 5711 5707 5703 5698 5690 5682 5678 5674 5671 5671 5669 5662 5658 5653 5651 5649 5645 5643 5641 5642 5640 5637 5632 5628 5625 5620 5615 5610 5606 5602 5598
5750 5746 5743 5739 5736 5732 5729 5727 5723 5719 5715 5712 5708 5704 5700 5694 5689 5682 5676 5670 5664 5663 5661 5654 5650 5647 5646 5643 5641 5639 5638 5637 5634 5630 5627 5623 5619 5614 5610 5607 5603 5598 5594
5743 5739 5737 5734 5731 5726 5723 5720 5718 5714 5712 5706 5704 5701 5696 5690 5683 5676 5673 5669 5666 5661 5655 5653 5650 5648 5645 5643 5640 5637 5634 5631 5627 5625 5621 5617 5613 5608 5605 5601 5596 5593 5590
5735 5733 5732 5729 5725 5722 5717 5711 5704 5703 5698 5695 5692 5690 5687 5681 5673 5667 5662 5658 5654 5650 5649 5649 5647 5645 5642 5639 5637 5633 5629 5625 5622 5619 5615 5611 5607 5603 5599 5595 5591 5588 5584
5730 5727 5727 5724 5720 5717 5713 5708 5702 5693 5688 5685 5682 5679 5675 5670 5665 5659 5654 5649 5645 5642 5644 5645 5643 5640 5637 5634 5632 5628 5625 5621 5616 5613 5609 5605 5601 5597 5593 5589 5585 5582 5579
5724 5720 5718 5716 5715 5712 5708 5705 5701 5695 5689 5684 5676 5670 5666 5661 5657 5652 5646 5642 5642 5639 5642 5641 5639 5635 5631 5628 5626 5623 5619 5614 5610 5606 5603 5599 5595 5591 5587 5583 5580 5576 5573
5715 5712 5710 5709 5707 5705 5701 5699 5695 5690 5686 5681 5674 5666 5658 5653 5648 5644 5640 5642 5644 5641 5639 5636 5633 5630 5626 5623 5619 5615 5612 5608 5603 5600 5597 5592 5589 5585 5582 5579 5576 5568 5565
5707 5702 5699 5699 5698 5696 5694 5691 5687 5683 5679 5675 5670 5665 5656 5651 5648 5644 5639 5641 5640 5637 5634 5630 5627 5623 5620 5616 5612 5608 5604 5601 5596 5593 5590 5586 5583 5580 5576 5572 5570 5566 5561
5699 5694 5688 5690 5691 5689 5686 5683 5680 5677 5673 5669 5665 5660 5652 5651 5648 5644 5640 5637 5635 5632 5629 5625 5621 5617 5613 5609 5606 5602 5598 5595 5591 5587 5584 5580 5577 5574 5570 5567 5563 5560 5556
5692 5689 5685 5684 5683 5680 5678 5676 5673 5670 5667 5663 5658 5653 5644 5645 5644 5642 5638 5633 5630 5626 5622 5618 5615 5611 5607 5603 5600 5596 5592 5588 5585 5581 5577 5574 5571 5567 5564 5561 5557 5554 5551
5684 5682 5679 5677 5676 5672 5670 5669 5667 5664 5661 5658 5655 5650 5643 5641 5639 5636 5632 5628 5623 5619 5615 5612 5609 5606 5602 5597 5594 5590 5586 5582 5578 5574 5570 5567 5564 5561 5558 5554 5551 5548 5546
5676 5675 5672 5670 5668 5666 5665 5663 5661 5658 5655 5652 5648 5644 5640 5636 5633 5630 5626 5621 5616 5613 5609 5606 5603 5599 5595 5590 5587 5583 5578 5574 5569 5566 5562 5559 5557 5554 5551 5548 5545 5542 5539
5668 5667 5666 5664 5661 5660 5658 5656 5654 5652 5649 5646 5642 5638 5634 5630 5626 5622 5618 5614 5610 5606 5603 5599 5596 5592 5588 5584 5579 5575 5570 5565 5561 5558 5554 5552 5549 5546 5543 5541 5538 5535 5533
5662 5661 5659 5657 5655 5653 5651 5650 5647 5645 5642 5639 5636 5632 5628 5624 5620 5616 5612 5607 5604 5600 5596 5593 5589 5585 5581 5576 5571 5566 5561 5557 5553 5549 5546 5544 5542 5539 5535 5533 5531 5528 5525